Location: ??? ???
(33.4974°N, 35.4618°E)
Time: 02:13:28
(UTC+00:00)

Meteor 2-15 - Pass Details

Date: 29 October 2020
Orbit: 935 x 956 km, 82.5° (Epoch: 25 November)

Event Time Altitude Azimuth Distance (km) Brightness Sun altitude
Rises 15:57:03 0° 186° (S) 3,618 7.7 -14.8°
Reaches altitude 10° 15:59:32 10° 187° (S) 2,676 7.0 -15.3°
Maximum altitude 16:05:41 85° 277° (W) 963 4.5 -16.6°
Drops below altitude 10° 16:11:50 10° 5° (N) 2,683 6.7 -17.8°
Sets 16:14:20 0° 6° (N) 3,629 7.4 -18.4°
